CEB552 RPVM-RPLL

Flight info

Callsign CEB552
Flight time 1h 11m
Altitude 36000
Route PARAO4P PARAO DCT ROX DCT LAIYA LAIYA5R
Aircraft A321/L-V/N

Departure

Time 2026-05-06 06:27
Airport Mactan Cebu International Airport (RPVM)

Arrival

Time 2026-05-06 07:38
Airport Ninoy Aquino International Airport (RPLL)
Time Latitude Longitude Altitude Speed Heading
2026-05-06 06:11 10.31506 123.97927 34 ft 0 kts 315°
2026-05-06 06:16 10.31499 123.97936 38 ft 2 kts 304°
2026-05-06 06:17 10.31489 123.97948 38 ft 2 kts 319°
2026-05-06 06:17 10.31478 123.97958 38 ft 2 kts 313°
2026-05-06 06:17 10.31470 123.97966 38 ft 0 kts 315°
2026-05-06 06:17 10.31462 123.97977 38 ft 2 kts 284°
2026-05-06 06:18 10.31461 123.97992 38 ft 2 kts 254°
2026-05-06 06:18 10.31467 123.98003 38 ft 0 kts 229°
2026-05-06 06:18 10.31472 123.98009 38 ft 0 kts 225°
2026-05-06 06:20 10.31458 123.97994 38 ft 4 kts 225°
2026-05-06 06:20 10.31432 123.97968 38 ft 6 kts 225°
2026-05-06 06:20 10.31394 123.97929 38 ft 8 kts 226°
2026-05-06 06:21 10.31338 123.97898 38 ft 9 kts 180°
2026-05-06 06:21 10.31293 123.97930 37 ft 5 kts 135°
2026-05-06 06:21 10.31262 123.97961 37 ft 7 kts 135°
2026-05-06 06:21 10.31215 123.97980 37 ft 8 kts 190°
2026-05-06 06:22 10.31161 123.97941 37 ft 10 kts 226°
2026-05-06 06:22 10.31104 123.97881 37 ft 12 kts 225°
2026-05-06 06:22 10.31011 123.97791 37 ft 14 kts 224°
2026-05-06 06:22 10.30959 123.97739 37 ft 16 kts 224°
2026-05-06 06:23 10.30881 123.97653 37 ft 17 kts 235°
2026-05-06 06:23 10.30792 123.97570 37 ft 17 kts 225°
2026-05-06 06:23 10.30700 123.97478 37 ft 18 kts 224°
2026-05-06 06:23 10.30605 123.97383 37 ft 19 kts 224°
2026-05-06 06:24 10.30504 123.97282 38 ft 20 kts 224°
2026-05-06 06:24 10.30400 123.97177 38 ft 21 kts 225°
2026-05-06 06:24 10.30004 123.96781 38 ft 21 kts 225°
2026-05-06 06:24 10.29877 123.96714 38 ft 12 kts 140°
2026-05-06 06:25 10.29816 123.96774 38 ft 12 kts 134°
2026-05-06 06:25 10.29756 123.96837 37 ft 12 kts 134°
2026-05-06 06:25 10.29737 123.96920 37 ft 3 kts 47°
2026-05-06 06:26 10.29869 123.97053 37 ft 57 kts 45°
2026-05-06 06:26 10.30130 123.97314 37 ft 100 kts 45°
2026-05-06 06:26 10.30767 123.97955 39 ft 154 kts 45°
2026-05-06 06:26 10.31548 123.98734 553 ft 156 kts 44°
2026-05-06 06:27 10.32325 123.99487 1171 ft 156 kts 44°
2026-05-06 06:27 10.33098 124.00274 1612 ft 163 kts 46°
2026-05-06 06:27 10.33914 124.01138 1840 ft 174 kts 41°
2026-05-06 06:27 10.35052 124.01595 2033 ft 189 kts 358°
2026-05-06 06:28 10.36314 124.01073 2275 ft 205 kts 330°
2026-05-06 06:28 10.37541 124.00198 2484 ft 223 kts 327°
2026-05-06 06:28 10.38842 123.99264 2826 ft 236 kts 328°
2026-05-06 06:28 10.40219 123.98325 3376 ft 240 kts 329°
2026-05-06 06:29 10.41616 123.97412 3976 ft 241 kts 330°
2026-05-06 06:29 10.43041 123.96505 4593 ft 243 kts 331°
2026-05-06 06:29 10.44502 123.95591 5225 ft 246 kts 331°
2026-05-06 06:29 10.45963 123.94683 5847 ft 248 kts 332°
2026-05-06 06:30 10.47448 123.93765 6488 ft 251 kts 332°
2026-05-06 06:30 10.48923 123.92855 7128 ft 254 kts 332°
2026-05-06 06:30 10.50447 123.91916 7763 ft 256 kts 332°
2026-05-06 06:30 10.51989 123.90968 8380 ft 259 kts 332°
2026-05-06 06:31 10.53542 123.90012 8958 ft 263 kts 332°
2026-05-06 06:31 10.55108 123.89047 9549 ft 265 kts 331°
2026-05-06 06:31 10.56692 123.88071 10124 ft 267 kts 331°
2026-05-06 06:31 10.58288 123.87060 10701 ft 271 kts 326°
2026-05-06 06:32 10.59686 123.85796 11238 ft 276 kts 313°
2026-05-06 06:32 10.60886 123.84251 11791 ft 279 kts 308°
2026-05-06 06:32 10.62027 123.82649 12336 ft 281 kts 307°
2026-05-06 06:32 10.63160 123.81044 12868 ft 283 kts 307°
2026-05-06 06:33 10.64311 123.79421 13380 ft 285 kts 307°
2026-05-06 06:33 10.65487 123.77773 13884 ft 287 kts 307°
2026-05-06 06:33 10.66668 123.76123 14374 ft 290 kts 307°
2026-05-06 06:33 10.67851 123.74476 14851 ft 292 kts 307°
2026-05-06 06:34 10.69055 123.72800 15323 ft 294 kts 307°
2026-05-06 06:34 10.69456 123.72243 15479 ft 294 kts 308°
2026-05-06 06:34 10.71470 123.69443 16236 ft 298 kts 308°
2026-05-06 06:34 10.72706 123.67726 16689 ft 300 kts 307°
2026-05-06 06:35 10.73922 123.66037 17131 ft 301 kts 308°
2026-05-06 06:35 10.75162 123.64313 17572 ft 303 kts 307°
2026-05-06 06:35 10.76418 123.62567 18004 ft 305 kts 307°
2026-05-06 06:35 10.77672 123.60825 18426 ft 307 kts 307°
2026-05-06 06:36 10.78930 123.59077 18844 ft 309 kts 307°
2026-05-06 06:36 10.80213 123.57292 19252 ft 311 kts 307°
2026-05-06 06:36 10.81489 123.55517 19631 ft 314 kts 307°
2026-05-06 06:36 10.82769 123.53736 20013 ft 316 kts 307°
2026-05-06 06:37 10.84068 123.51926 20391 ft 319 kts 307°
2026-05-06 06:37 10.85393 123.50081 20764 ft 322 kts 307°
2026-05-06 06:37 10.86717 123.48238 21125 ft 325 kts 307°
2026-05-06 06:37 10.88060 123.46366 21493 ft 327 kts 307°
2026-05-06 06:38 10.89396 123.44508 21860 ft 330 kts 307°
2026-05-06 06:38 10.90754 123.42619 22228 ft 332 kts 308°
2026-05-06 06:38 10.92724 123.40193 22729 ft 334 kts 314°
2026-05-06 06:38 10.93811 123.39060 22991 ft 335 kts 317°
2026-05-06 06:39 10.95503 123.37422 23382 ft 336 kts 317°
2026-05-06 06:39 10.97219 123.35783 23751 ft 339 kts 317°
2026-05-06 06:39 10.98940 123.34140 24112 ft 341 kts 317°
2026-05-06 06:39 11.00676 123.32479 24470 ft 343 kts 317°
2026-05-06 06:40 11.02400 123.30825 24831 ft 345 kts 317°
2026-05-06 06:40 11.04744 123.28572 25302 ft 347 kts 317°
2026-05-06 06:40 11.05900 123.27461 25535 ft 349 kts 317°
2026-05-06 06:40 11.07687 123.25744 25897 ft 350 kts 317°
2026-05-06 06:41 11.09464 123.24034 26257 ft 352 kts 317°
2026-05-06 06:41 11.11234 123.22330 26606 ft 353 kts 316°
2026-05-06 06:41 11.13032 123.20599 26950 ft 355 kts 316°
2026-05-06 06:41 11.14817 123.18881 27292 ft 357 kts 316°
2026-05-06 06:42 11.16628 123.17137 27624 ft 358 kts 316°
2026-05-06 06:42 11.18433 123.15398 27959 ft 360 kts 316°
2026-05-06 06:42 11.20264 123.13634 28298 ft 361 kts 316°
2026-05-06 06:42 11.22093 123.11871 28624 ft 363 kts 316°
2026-05-06 06:43 11.23929 123.10101 28941 ft 365 kts 316°
2026-05-06 06:43 11.25787 123.08311 29245 ft 368 kts 316°
2026-05-06 06:43 11.28271 123.05916 29650 ft 371 kts 316°
2026-05-06 06:43 11.29517 123.04714 29845 ft 372 kts 316°
2026-05-06 06:44 11.32044 123.02277 30227 ft 376 kts 316°
2026-05-06 06:44 11.33320 123.01045 30423 ft 377 kts 316°
2026-05-06 06:44 11.35849 122.98604 30812 ft 380 kts 316°
2026-05-06 06:44 11.37138 122.97360 31001 ft 382 kts 316°
2026-05-06 06:45 11.39073 122.95490 31274 ft 384 kts 316°
2026-05-06 06:45 11.41671 122.92981 31635 ft 388 kts 316°
2026-05-06 06:45 11.43640 122.91080 31900 ft 390 kts 316°
2026-05-06 06:45 11.44949 122.89815 32076 ft 392 kts 316°
2026-05-06 06:46 11.46927 122.87903 32341 ft 394 kts 316°
2026-05-06 06:46 11.48910 122.85985 32598 ft 396 kts 316°
2026-05-06 06:46 11.50942 122.84019 32879 ft 399 kts 316°
2026-05-06 06:46 11.52948 122.82077 33160 ft 401 kts 316°
2026-05-06 06:47 11.55665 122.79449 33548 ft 403 kts 316°
2026-05-06 06:47 11.57013 122.78145 33737 ft 405 kts 315°
2026-05-06 06:47 11.59858 122.75603 34109 ft 408 kts 321°
2026-05-06 06:47 11.62133 122.73877 34379 ft 410 kts 324°
2026-05-06 06:48 11.63709 122.72786 34561 ft 411 kts 325°
2026-05-06 06:48 11.66095 122.71161 34817 ft 412 kts 325°
2026-05-06 06:48 11.68490 122.69535 35067 ft 414 kts 325°
2026-05-06 06:48 11.70865 122.67920 35306 ft 415 kts 325°
2026-05-06 06:49 11.73295 122.66266 35538 ft 417 kts 325°
2026-05-06 06:49 11.75708 122.64619 35744 ft 419 kts 325°
2026-05-06 06:49 11.78969 122.62392 35839 ft 425 kts 325°
2026-05-06 06:50 11.83105 122.59563 35845 ft 435 kts 325°
2026-05-06 06:50 11.88210 122.56072 35847 ft 446 kts 325°
2026-05-06 06:51 11.93400 122.52521 35847 ft 448 kts 325°
2026-05-06 06:51 11.98570 122.48981 35847 ft 448 kts 325°
2026-05-06 06:52 12.03732 122.45445 35843 ft 448 kts 325°
2026-05-06 06:52 12.08917 122.41891 35838 ft 448 kts 325°
2026-05-06 06:53 12.14976 122.37736 35833 ft 448 kts 325°
2026-05-06 06:53 12.19262 122.34794 35831 ft 448 kts 324°
2026-05-06 06:54 12.24440 122.31239 35830 ft 447 kts 324°
2026-05-06 06:54 12.29629 122.27676 35830 ft 447 kts 324°
2026-05-06 06:55 12.34794 122.24126 35830 ft 447 kts 324°
2026-05-06 06:55 12.39931 122.20594 35831 ft 447 kts 324°
2026-05-06 06:56 12.45113 122.17030 35832 ft 447 kts 324°
2026-05-06 06:56 12.50262 122.13487 35833 ft 446 kts 324°
2026-05-06 06:57 12.55443 122.09920 35831 ft 446 kts 324°
2026-05-06 06:57 12.60576 122.06384 35834 ft 447 kts 324°
2026-05-06 06:58 12.65764 122.02809 35837 ft 447 kts 324°
2026-05-06 06:58 12.70919 121.99252 35492 ft 445 kts 325°
2026-05-06 06:58 12.73489 121.97480 35204 ft 442 kts 325°
2026-05-06 06:59 12.76007 121.95744 34921 ft 439 kts 325°
2026-05-06 06:59 12.78551 121.93987 34634 ft 436 kts 324°
2026-05-06 06:59 12.81070 121.92248 34350 ft 436 kts 325°
2026-05-06 06:59 12.83564 121.90527 34070 ft 436 kts 325°
2026-05-06 07:00 12.86085 121.88785 33786 ft 437 kts 325°
2026-05-06 07:00 12.88598 121.87048 33505 ft 437 kts 325°
2026-05-06 07:00 12.91149 121.85285 33220 ft 438 kts 325°
2026-05-06 07:00 12.93651 121.83556 32943 ft 439 kts 325°
2026-05-06 07:01 12.96184 121.81805 32663 ft 440 kts 325°
2026-05-06 07:01 12.98745 121.80035 32404 ft 441 kts 325°
2026-05-06 07:01 13.01293 121.78272 32149 ft 442 kts 325°
2026-05-06 07:01 13.03845 121.76507 31893 ft 443 kts 325°
2026-05-06 07:02 13.06396 121.74741 31638 ft 444 kts 325°
2026-05-06 07:02 13.08946 121.72976 31383 ft 444 kts 325°
2026-05-06 07:02 13.11523 121.71192 31129 ft 444 kts 325°
2026-05-06 07:02 13.14072 121.69427 30861 ft 443 kts 325°
2026-05-06 07:03 13.16655 121.67638 30460 ft 441 kts 325°
2026-05-06 07:03 13.19179 121.65887 30131 ft 439 kts 325°
2026-05-06 07:03 13.22548 121.63552 29548 ft 435 kts 326°
2026-05-06 07:03 13.25053 121.61815 29075 ft 432 kts 326°
2026-05-06 07:04 13.26673 121.60691 28765 ft 430 kts 326°
2026-05-06 07:04 13.29144 121.58978 28298 ft 426 kts 326°
2026-05-06 07:04 13.31601 121.57272 27829 ft 422 kts 326°
2026-05-06 07:04 13.34042 121.55576 27359 ft 419 kts 326°
2026-05-06 07:05 13.37244 121.53352 26742 ft 414 kts 326°
2026-05-06 07:05 13.38798 121.52272 26433 ft 412 kts 326°
2026-05-06 07:05 13.41166 121.50626 25972 ft 408 kts 326°
2026-05-06 07:05 13.44300 121.48447 25361 ft 403 kts 326°
2026-05-06 07:06 13.45838 121.47379 25058 ft 401 kts 326°
2026-05-06 07:06 13.48138 121.45779 24604 ft 398 kts 326°
2026-05-06 07:06 13.50440 121.44177 24164 ft 394 kts 326°
2026-05-06 07:06 13.52658 121.42633 23961 ft 383 kts 326°
2026-05-06 07:07 13.54842 121.41113 23826 ft 370 kts 326°
2026-05-06 07:07 13.56944 121.39650 23707 ft 358 kts 326°
2026-05-06 07:07 13.58987 121.38184 23364 ft 355 kts 325°
2026-05-06 07:07 13.60978 121.36701 22958 ft 353 kts 324°
2026-05-06 07:08 13.62951 121.35222 22549 ft 351 kts 324°
2026-05-06 07:08 13.64915 121.33751 22138 ft 349 kts 324°
2026-05-06 07:08 13.66861 121.32297 21751 ft 346 kts 324°
2026-05-06 07:08 13.68809 121.30843 21349 ft 345 kts 324°
2026-05-06 07:09 13.70753 121.29392 20955 ft 343 kts 324°
2026-05-06 07:09 13.72676 121.27957 20555 ft 341 kts 324°
2026-05-06 07:09 13.74602 121.26520 20159 ft 340 kts 324°
2026-05-06 07:09 13.76522 121.25089 19767 ft 339 kts 324°
2026-05-06 07:10 13.78433 121.23664 19377 ft 338 kts 324°
2026-05-06 07:10 13.80325 121.22251 18978 ft 337 kts 324°
2026-05-06 07:10 13.82225 121.20834 18569 ft 336 kts 325°
2026-05-06 07:10 13.84114 121.19422 18182 ft 335 kts 325°
2026-05-06 07:11 13.86007 121.18008 17780 ft 334 kts 325°
2026-05-06 07:11 13.87883 121.16608 17384 ft 333 kts 325°
2026-05-06 07:11 13.89761 121.15204 17007 ft 332 kts 325°
2026-05-06 07:11 13.91633 121.13806 16617 ft 330 kts 325°
2026-05-06 07:12 13.93486 121.12421 16227 ft 329 kts 325°
2026-05-06 07:12 13.95336 121.11037 15865 ft 328 kts 325°
2026-05-06 07:12 13.97186 121.09655 15469 ft 326 kts 325°
2026-05-06 07:12 13.98996 121.08302 15102 ft 324 kts 325°
2026-05-06 07:13 14.00833 121.06928 14704 ft 323 kts 325°
2026-05-06 07:13 14.02654 121.05566 14322 ft 322 kts 325°
2026-05-06 07:13 14.04465 121.04212 13921 ft 321 kts 325°
2026-05-06 07:13 14.06273 121.02860 13530 ft 320 kts 325°
2026-05-06 07:14 14.08084 121.01505 13158 ft 318 kts 325°
2026-05-06 07:14 14.09852 121.00182 12799 ft 316 kts 325°
2026-05-06 07:14 14.11648 120.98837 12404 ft 314 kts 325°
2026-05-06 07:14 14.13396 120.97528 12040 ft 312 kts 326°
2026-05-06 07:15 14.15131 120.96228 11819 ft 304 kts 325°
2026-05-06 07:15 14.16832 120.94963 11709 ft 291 kts 327°
2026-05-06 07:15 14.18503 120.93880 11492 ft 285 kts 331°
2026-05-06 07:15 14.20226 120.92855 11134 ft 284 kts 332°
2026-05-06 07:16 14.21939 120.91848 10781 ft 283 kts 332°
2026-05-06 07:16 14.23645 120.90845 10439 ft 282 kts 332°
2026-05-06 07:16 14.25328 120.89813 10198 ft 275 kts 325°
2026-05-06 07:16 14.26501 120.88333 10096 ft 267 kts 291°
2026-05-06 07:17 14.26678 120.86428 9811 ft 271 kts 257°
2026-05-06 07:17 14.25538 120.84157 9365 ft 270 kts 235°
2026-05-06 07:17 14.24819 120.83102 9151 ft 269 kts 235°
2026-05-06 07:17 14.23433 120.80960 8735 ft 269 kts 237°
2026-05-06 07:18 14.22785 120.79880 8511 ft 269 kts 238°
2026-05-06 07:18 14.22461 120.79324 8396 ft 269 kts 239°
2026-05-06 07:19 14.24151 120.73783 7170 ft 252 kts 338°
2026-05-06 07:19 14.25749 120.73048 6870 ft 251 kts 338°
2026-05-06 07:19 14.27323 120.72277 6550 ft 251 kts 336°
2026-05-06 07:19 14.28890 120.71439 6244 ft 251 kts 334°
2026-05-06 07:20 14.30424 120.70579 5923 ft 250 kts 336°
2026-05-06 07:20 14.32065 120.70116 5559 ft 246 kts
2026-05-06 07:20 14.33687 120.70567 5224 ft 240 kts 34°
2026-05-06 07:20 14.34792 120.71790 5003 ft 230 kts 66°
2026-05-06 07:21 14.35312 120.73340 5013 ft 230 kts 72°
2026-05-06 07:21 14.35889 120.74876 4995 ft 231 kts 66°
2026-05-06 07:21 14.36627 120.76351 4850 ft 231 kts 61°
2026-05-06 07:21 14.37436 120.77799 4563 ft 231 kts 60°
2026-05-06 07:22 14.38247 120.79227 4270 ft 230 kts 60°
2026-05-06 07:22 14.39044 120.80643 3986 ft 228 kts 61°
2026-05-06 07:22 14.39833 120.82059 3693 ft 222 kts 61°
2026-05-06 07:22 14.40583 120.83409 3491 ft 210 kts 61°
2026-05-06 07:23 14.41281 120.84671 3248 ft 197 kts 61°
2026-05-06 07:23 14.41944 120.85869 2982 ft 187 kts 62°
2026-05-06 07:23 14.42369 120.86638 2814 ft 182 kts 62°
2026-05-06 07:24 14.45288 120.91906 1766 ft 148 kts 62°
2026-05-06 07:25 14.45963 120.93121 1522 ft 144 kts 63°
2026-05-06 07:25 14.46456 120.94009 1330 ft 141 kts 64°
2026-05-06 07:25 14.46940 120.94881 1164 ft 143 kts 64°
2026-05-06 07:25 14.47443 120.95786 982 ft 143 kts 64°
2026-05-06 07:26 14.47933 120.96673 810 ft 141 kts 62°
2026-05-06 07:26 14.48419 120.97546 633 ft 140 kts 63°
2026-05-06 07:26 14.48736 120.98119 516 ft 139 kts 62°
2026-05-06 07:26 14.49390 120.99284 301 ft 144 kts 63°
2026-05-06 07:27 14.49890 121.00195 124 ft 151 kts 64°
2026-05-06 07:27 14.50380 121.01148 719 ft 153 kts 66°
2026-05-06 07:27 14.50690 121.01807 1115 ft 159 kts 68°
2026-05-06 07:27 14.51262 121.03184 1876 ft 153 kts 70°
2026-05-06 07:28 14.51628 121.04197 2330 ft 150 kts 72°
2026-05-06 07:28 14.51846 121.04872 2599 ft 150 kts 73°
2026-05-06 07:28 14.52394 121.07279 3495 ft 147 kts 92°
2026-05-06 07:29 14.51949 121.08256 3348 ft 159 kts 130°
2026-05-06 07:29 14.51078 121.09045 3057 ft 182 kts 139°
2026-05-06 07:29 14.49972 121.09905 2977 ft 218 kts 144°
2026-05-06 07:29 14.48455 121.10409 2897 ft 235 kts 178°
2026-05-06 07:30 14.46857 121.09987 2934 ft 242 kts 210°
2026-05-06 07:30 14.45623 121.08746 2971 ft 261 kts 234°
2026-05-06 07:30 14.44646 121.07132 2975 ft 268 kts 239°
2026-05-06 07:30 14.38600 120.95961 2985 ft 269 kts 240°
2026-05-06 07:31 14.33915 120.87209 2970 ft 268 kts 240°
2026-05-06 07:31 14.33182 120.85479 2952 ft 261 kts 259°
2026-05-06 07:31 14.33386 120.83704 2945 ft 242 kts 299°
2026-05-06 07:31 14.34420 120.82438 2960 ft 227 kts 327°
2026-05-06 07:32 14.35837 120.81747 2967 ft 222 kts 350°
2026-05-06 07:32 14.37352 120.81592 2978 ft 219 kts
2026-05-06 07:32 14.38863 120.81796 2951 ft 215 kts 28°
2026-05-06 07:32 14.40023 120.82708 2976 ft 211 kts 51°
2026-05-06 07:33 14.40845 120.83884 3053 ft 191 kts 59°
2026-05-06 07:33 14.41480 120.84996 3067 ft 170 kts 62°
2026-05-06 07:33 14.42042 120.86028 2921 ft 158 kts 62°
2026-05-06 07:33 14.42566 120.86991 2713 ft 151 kts 62°
2026-05-06 07:34 14.43079 120.87926 2525 ft 149 kts 63°
2026-05-06 07:34 14.43591 120.88856 2349 ft 148 kts 62°
2026-05-06 07:34 14.44106 120.89784 2173 ft 149 kts 62°
2026-05-06 07:34 14.44622 120.90712 2002 ft 149 kts 62°
2026-05-06 07:35 14.45137 120.91640 1841 ft 147 kts 62°
2026-05-06 07:35 14.45628 120.92524 1630 ft 138 kts 62°
2026-05-06 07:35 14.46102 120.93375 1449 ft 138 kts 63°
2026-05-06 07:35 14.46583 120.94242 1287 ft 139 kts 63°
2026-05-06 07:36 14.47067 120.95113 1116 ft 138 kts 62°
2026-05-06 07:36 14.47549 120.95979 942 ft 141 kts 64°
2026-05-06 07:36 14.48041 120.96870 784 ft 144 kts 61°
2026-05-06 07:36 14.48545 120.97770 586 ft 145 kts 64°
2026-05-06 07:37 14.49063 120.98684 398 ft 146 kts 64°
2026-05-06 07:37 14.49561 120.99581 235 ft 146 kts 65°
2026-05-06 07:37 14.50057 121.00488 94 ft 141 kts 63°
2026-05-06 07:37 14.50469 121.01247 81 ft 108 kts 62°
2026-05-06 07:38 14.50758 121.01775 81 ft 59 kts 59°
2026-05-06 07:38 14.50890 121.01997 81 ft 15 kts 41°